Tracking 31027 objects as of 19-Jul-2025
HD Live streaming from Space Station
objects crossing your sky now

THOR ABLESTAR DEB

Track THOR ABLESTAR DEB now!
10-day predictions


NORAD ID: 406
Int'l Code: 1961-015EF
Perigee: 916.5 km
Apogee: 1,102.6 km
Inclination: 66.8 °
Period: 105.2 minutes
Semi major axis: 7380 km
RCS: 0.0536 m2 (small)
Launch date: June 29, 1961
Source: United States (US)
Launch site: AIR FORCE EASTERN TEST RANGE (AFETR)

Note: This is SATELLITE DEBRIS
Your satellite tracking list
STARLINK-2062
Track 1 satellite(s)




NASA's NSSDC Master Catalog

Two Line Element Set (TLE):
1   406U 61015EF  25199.88516084  .00000318  00000-0  42649-3 0  9999
2   406  66.7779  59.0978 0126096 259.6956 119.9637 13.69211071175996
Source of the keplerian elements: AFSPC